Weather History for LEJR - November, 2012

Change the Weather History Date:

Sunday, November 18, 2012

  Actual Average Record
Temperature  
Mean Temperature 62 °F -  
Max Temperature 68 °F 62 °F 69 °F (1998)
Min Temperature 57 °F 45 °F 35 °F (2008)
Degree Days  
Heating Degree Days 2    
Growing Degree Days 12 (Base 50)    
Moisture  
Dew Point 57 °F    
Average Humidity 88    
Maximum Humidity 100    
Minimum Humidity 64    
Precipitation  
Precipitation 0.04 in 0.14 in - ()
Sea Level Pressure  
Sea Level Pressure 29.78 in    
Wind  
Wind Speed 5 mph ()    
Max Wind Speed 14 mph    
Max Gust Speed -    
Visibility 6.1 miles    
Events Rain    
Averages and records for this station are not official NWS values.
T = Trace of Precipitation, MM = Missing Value Source: Averaged Metar Reports

Daily Weather History Graph

Daily Weather History Graph

Search for Another Location

Airport or City:

Trip Planner

Search our weather history database for the weather conditions in past years. The results will help you decide how hot, cold, wet, or windy it might be!

Date:

Astronomy

Nov. 18, 2012 Rise Set
Actual Time 8:05 AM CET 6:12 PM CET
Civil Twilight 7:37 AM CET 6:40 PM CET
Nautical Twilight 7:06 AM CET 7:12 PM CET
Astronomical Twilight 6:35 AM CET 7:42 PM CET
Moon 12:24 PM CET (11/18) 11:14 PM CET (11/18)
Length of Visible Light 11h 02m
Length of Day
10h 07m
Waxing Crescent, 27% of the Moon is Illuminated
Nov 18
Waxing Crescent
Nov 20
First Quarter
Nov 28
Full
Dec 6
Last Quarter
Dec 13
New

Hourly Weather History & Observations

Time (CET) Temp. Dew Point Humidity Pressure Visibility Wind Dir Wind Speed Gust Speed Precip Events Conditions
1:00 AM 58 °F 58 °F 100% 29.66 in 7 mi West 8.1 mph - -   Mostly Cloudy
5:00 AM 57.2 °F 57.2 °F 100% 29.62 in 6.2 mi Variable 2.3 mph - N/A   Scattered Clouds
5:30 AM 57.2 °F 57.2 °F 100% 29.65 in 6.2 mi Calm Calm - N/A   Scattered Clouds
6:00 AM 57.2 °F 57.2 °F 100% 29.65 in 6.2 mi Calm Calm - N/A   Scattered Clouds
6:30 AM 57.2 °F 57.2 °F 100% 29.65 in 6.2 mi Calm Calm - N/A   Mostly Cloudy
7:00 AM 57.2 °F 57.2 °F 100% 29.65 in 6.2 mi Calm Calm - N/A   Mostly Cloudy
7:30 AM 57.2 °F 57.2 °F 100% 29.68 in 6.2 mi Calm Calm - N/A   Mostly Cloudy
8:00 AM 57.2 °F 57.2 °F 100% 29.68 in 6.2 mi Variable 1.2 mph - N/A   Mostly Cloudy
8:30 AM 57.2 °F 57.2 °F 100% 29.71 in 3.1 mi NW 3.5 mph - N/A Rain Light Rain
9:00 AM 57.2 °F 57.2 °F 100% 29.71 in 3.7 mi NNW 3.5 mph - N/A   Mostly Cloudy
9:30 AM 57.2 °F 57.2 °F 100% 29.71 in 6.2 mi North 3.5 mph - N/A   Mostly Cloudy
10:00 AM 59.0 °F 57.2 °F 94% 29.74 in 5.0 mi NNE 6.9 mph - N/A   Mostly Cloudy
10:30 AM 59.0 °F 59.0 °F 100% 29.74 in 6.2 mi North 10.4 mph - N/A   Mostly Cloudy
11:00 AM 60.8 °F 59.0 °F 94% 29.77 in 6.2 mi North 11.5 mph - N/A   Mostly Cloudy
11:30 AM 59.0 °F 59.0 °F 100% 29.77 in 6.2 mi North 9.2 mph - N/A   Mostly Cloudy
11:46 AM 60.8 °F 59.0 °F 94% 29.77 in 6.2 mi North 12.7 mph - N/A   Mostly Cloudy
12:00 PM 59.0 °F 59.0 °F 100% 29.77 in 6.2 mi NNW 12.7 mph - N/A   Mostly Cloudy
12:30 PM 59.0 °F 57.2 °F 94% 29.80 in 6.2 mi North 12.7 mph - N/A   Mostly Cloudy
1:00 PM 61 °F 59 °F 92% 29.79 in 6 mi North 12.7 mph - -   Mostly Cloudy
1:00 PM 60.8 °F 57.2 °F 88% 29.77 in 6.2 mi North 11.5 mph - N/A   Mostly Cloudy
1:30 PM 62.6 °F 57.2 °F 82% 29.77 in 6.2 mi NNE 13.8 mph - N/A   Mostly Cloudy
2:00 PM 64.4 °F 57.2 °F 77% 29.77 in 6.2 mi NNE 11.5 mph - N/A   Scattered Clouds
2:30 PM 66.2 °F 55.4 °F 68% 29.77 in 6.2 mi North 13.8 mph - N/A   Scattered Clouds
3:00 PM 66.2 °F 55.4 °F 68% 29.77 in 6.2 mi North 13.8 mph - N/A   Scattered Clouds
3:30 PM 66.2 °F 55.4 °F 68% 29.77 in 6.2 mi North 11.5 mph - N/A   Scattered Clouds
4:00 PM 68.0 °F 55.4 °F 64% 29.80 in 6.2 mi NNE 10.4 mph - N/A   Scattered Clouds
4:30 PM 68.0 °F 55.4 °F 64% 29.80 in 6.2 mi North 10.4 mph - N/A   Scattered Clouds
5:00 PM 68.0 °F 55.4 °F 64% 29.80 in 6.2 mi NNE 10.4 mph - N/A   Scattered Clouds
5:30 PM 66.2 °F 55.4 °F 68% 29.83 in 6.2 mi North 6.9 mph - N/A   Scattered Clouds
6:00 PM 64.4 °F 55.4 °F 73% 29.83 in 6.2 mi North 3.5 mph - N/A   Scattered Clouds
6:30 PM 62.6 °F 57.2 °F 82% 29.86 in 6.2 mi Variable 1.2 mph - N/A   Scattered Clouds
7:00 PM 62 °F 58 °F 84% 29.87 in 9 mi West 2.3 mph - -   Partly Cloudy
7:00 PM 62.6 °F 57.2 °F 82% 29.86 in 6.2 mi Variable 2.3 mph - N/A   Scattered Clouds
7:30 PM 60.8 °F 55.4 °F 82% 29.86 in 6.2 mi Variable 2.3 mph - N/A   Scattered Clouds
8:00 PM 60.8 °F 57.2 °F 88% 29.89 in 6.2 mi WNW 3.5 mph - N/A   Scattered Clouds
8:30 PM 60.8 °F 57.2 °F 88% 29.89 in 6.2 mi NW 3.5 mph - N/A   Scattered Clouds
9:00 PM 59.0 °F 57.2 °F 94% 29.89 in 6.2 mi Variable 2.3 mph - N/A   Scattered Clouds
9:30 PM 60.8 °F 55.4 °F 82% 29.92 in 6.2 mi NW 8.1 mph - N/A   Scattered Clouds
10:00 PM 60.8 °F 57.2 °F 88% 29.92 in 6.2 mi WNW 5.8 mph - N/A   Scattered Clouds
10:30 PM 59.0 °F 55.4 °F 88% 29.92 in 6.2 mi NW 8.1 mph - N/A   Scattered Clouds
11:00 PM 57.2 °F 55.4 °F 94% 29.95 in 6.2 mi Variable 1.2 mph - N/A   Scattered Clouds